Tracking 19176 objects as of 26-May-2018
HD Live streaming from Space Station
objects crossing your sky now

FENGYUN 1C DEB

Track FENGYUN 1C DEB now!
10-day predictions


NORAD ID: 30056
Int'l Code: 1999-025PH
Perigee: 790.4 km
Apogee: 1,275.2 km
Inclination: 98.4 °
Period: 105.7 minutes
Semi major axis: 7403 km
RCS: 0.052 m2 (small)
Launch date: May 10, 1999
Source: People's Republic of China (PRC)
Launch site: Taiyaun Space Center, China (TSC)

Note: This is SATELLITE DEBRIS
aabbcc
Your satellite tracking list
Your tracking list is empty




NASA's NSSDC Master Catalog

Two Line Element Set (TLE):
1 30056U 99025PH  18146.45664377  .00000449  00000-0  43319-3 0  9991
2 30056  98.3531 306.7790 0327444 355.7733   4.0662 13.62768122563419
Source of the keplerian elements: AFSPC